Weather History for KS25 - October, 2012

Change the Weather History Date:

Monday, October 8, 2012

  Actual Average (KISN) Record (KISN)
Temperature  
Mean Temperature 43 °F 47 °F  
Max Temperature 51 °F 61 °F 86 °F (1980)
Min Temperature 35 °F 33 °F 16 °F (1959)
Degree Days  
Heating Degree Days 22 18  
Month to date heating degree days 135  
Since 1 July heating degree days 481  
Cooling Degree Days 0 0  
Month to date cooling degree days 0  
Year to date cooling degree days 455  
Moisture  
Dew Point 34 °F    
Average Humidity 64    
Maximum Humidity 87    
Minimum Humidity 49    
Precipitation  
Precipitation 0.01 in 0.03 in 0.51 in (1997)
Month to date precipitation 0.26  
Year to date precipitation 12.44  
Snow  
Snow 0.00 in 0.10 in 2.80 in (1985)
Month to date snowfall 0.4  
Since 1 July snowfall 0.6  
Since 1 September snowfall 0.6  
Snow Depth -    
Sea Level Pressure  
Sea Level Pressure 29.72 in    
Wind  
Wind Speed 13 mph (WNW)    
Max Wind Speed 23 mph    
Max Gust Speed 33 mph    
Visibility 10 miles    
Events Rain    
T = Trace of Precipitation, MM = Missing Value Source: NWS Daily Summary

Daily Weather History Graph

Daily Weather History Graph

Search for Another Location

Airport or City:

Trip Planner

Search our weather history database for the weather conditions in past years. The results will help you decide how hot, cold, wet, or windy it might be!

Date:

Astronomy

Oct. 08, 2012 Rise Set
Actual Time 8:02 AM CDT 7:17 PM CDT
Civil Twilight 7:31 AM CDT 7:48 PM CDT
Nautical Twilight 6:56 AM CDT 8:23 PM CDT
Astronomical Twilight 6:19 AM CDT 8:59 PM CDT
Moon 12:16 AM CDT (10/8) 3:34 PM CDT (10/8)
Length of Visible Light 12h 16m
Length of Day
11h 14m
Last Quarter, 46% of the Moon is Illuminated
Oct 8
Last Quarter
Oct 15
New
Oct 21
First Quarter
Oct 29
Full
Nov 6
Last Quarter

Hourly Weather History & Observations

Time (CDT) Temp. Windchill Dew Point Humidity Pressure Visibility Wind Dir Wind Speed Gust Speed Precip Events Conditions
12:15 AM 46.4 °F 42.9 °F 35.6 °F 66% 29.62 in 10.0 mi WSW 6.9 mph - N/A   Overcast
12:35 AM 46.4 °F 43.5 °F 37.4 °F 71% 29.62 in 10.0 mi WSW 5.8 mph - N/A   Overcast
12:55 AM 46.4 °F 42.9 °F 37.4 °F 71% 29.61 in 10.0 mi SW 6.9 mph - N/A   Overcast
1:15 AM 48.2 °F - 37.4 °F 66% 29.61 in 10.0 mi SW 9.2 mph - N/A   Overcast
1:35 AM 48.2 °F - 37.4 °F 66% 29.60 in 10.0 mi SW 8.1 mph - N/A   Overcast
1:55 AM 48.2 °F - 39.2 °F 71% 29.60 in 10.0 mi SW 8.1 mph - N/A   Mostly Cloudy
2:15 AM 51.8 °F - 37.4 °F 58% 29.60 in 10.0 mi West 11.5 mph - N/A   Overcast
2:35 AM 51.8 °F - 37.4 °F 58% 29.59 in 10.0 mi West 12.7 mph - N/A   Mostly Cloudy
2:55 AM 51.8 °F - 37.4 °F 58% 29.60 in 10.0 mi West 12.7 mph - N/A   Mostly Cloudy
3:15 AM 51.8 °F - 37.4 °F 58% 29.61 in 10.0 mi West 12.7 mph 21.9 mph N/A   Overcast
3:35 AM 50.0 °F - 37.4 °F 62% 29.61 in 10.0 mi WNW 16.1 mph - N/A   Mostly Cloudy
3:55 AM 50.0 °F - 39.2 °F 66% 29.61 in 10.0 mi WNW 15.0 mph 20.7 mph N/A   Mostly Cloudy
4:15 AM 50.0 °F - 39.2 °F 66% 29.62 in 10.0 mi WNW 12.7 mph 23.0 mph N/A Rain Light Rain
4:35 AM 50.0 °F - 39.2 °F 66% 29.62 in 10.0 mi WNW 13.8 mph 24.2 mph N/A   Mostly Cloudy
4:55 AM 50.0 °F - 39.2 °F 66% 29.62 in 10.0 mi WNW 11.5 mph 17.3 mph N/A   Partly Cloudy
5:35 AM 48.2 °F - 39.2 °F 71% 29.65 in 10.0 mi NW 12.7 mph 19.6 mph N/A   Scattered Clouds
5:55 AM 48.2 °F - 39.2 °F 71% 29.66 in 10.0 mi NW 10.4 mph - N/A   Mostly Cloudy
6:15 AM 48.2 °F - 39.2 °F 71% 29.66 in 10.0 mi WNW 10.4 mph - N/A   Mostly Cloudy
6:35 AM 48.2 °F - 39.2 °F 71% 29.66 in 10.0 mi WNW 13.8 mph 20.7 mph N/A   Scattered Clouds
6:55 AM 48.2 °F - 39.2 °F 71% 29.67 in 10.0 mi NW 19.6 mph 26.5 mph N/A   Scattered Clouds
7:15 AM 46.4 °F 39.8 °F 39.2 °F 76% 29.68 in 10.0 mi NW 16.1 mph 19.6 mph N/A Rain Light Rain
7:35 AM 44.6 °F 38.8 °F 41.0 °F 87% 29.69 in 10.0 mi NW 11.5 mph - N/A Rain Light Rain
7:55 AM 44.6 °F 37.2 °F 41.0 °F 87% 29.70 in 10.0 mi NW 17.3 mph 23.0 mph 0.01 in Rain Light Rain
8:15 AM 44.6 °F 38.4 °F 41.0 °F 87% 29.70 in 10.0 mi NW 12.7 mph 19.6 mph N/A   Mostly Cloudy
8:35 AM 44.6 °F 38.4 °F 41.0 °F 87% 29.70 in 10.0 mi WNW 12.7 mph 20.7 mph N/A   Overcast
8:55 AM 44.6 °F 38.1 °F 41.0 °F 87% 29.71 in 10.0 mi WNW 13.8 mph 20.7 mph N/A   Overcast
9:15 AM 44.6 °F 38.4 °F 41.0 °F 87% 29.71 in 10.0 mi NW 12.7 mph 19.6 mph N/A   Overcast
9:35 AM 44.6 °F 38.8 °F 39.2 °F 81% 29.72 in 10.0 mi NW 11.5 mph - N/A   Overcast
9:55 AM 46.4 °F 41.1 °F 41.0 °F 81% 29.73 in 10.0 mi NW 11.5 mph - N/A   Overcast
10:15 AM 46.4 °F 39.8 °F 41.0 °F 81% 29.73 in 10.0 mi WNW 16.1 mph 20.7 mph N/A   Mostly Cloudy
10:35 AM 46.4 °F 40.4 °F 39.2 °F 76% 29.74 in 10.0 mi WNW 13.8 mph 18.4 mph N/A   Overcast
10:55 AM 46.4 °F 40.4 °F 41.0 °F 81% 29.74 in 10.0 mi WNW 13.8 mph 20.7 mph N/A   Mostly Cloudy
11:15 AM 46.4 °F 39.2 °F 39.2 °F 76% 29.74 in 10.0 mi NW 18.4 mph 24.2 mph N/A   Mostly Cloudy
11:35 AM 46.4 °F 38.7 °F 37.4 °F 71% 29.73 in 10.0 mi NW 20.7 mph 25.3 mph N/A   Mostly Cloudy
11:55 AM 48.2 °F - 37.4 °F 66% 29.73 in 10.0 mi NW 20.7 mph 25.3 mph N/A   Mostly Cloudy
12:15 PM 48.2 °F - 35.6 °F 62% 29.73 in 10.0 mi NW 19.6 mph 29.9 mph N/A   Scattered Clouds
12:35 PM 50.0 °F - 33.8 °F 54% 29.73 in 10.0 mi WNW 19.6 mph 28.8 mph N/A   Scattered Clouds
12:55 PM 50.0 °F - 32.0 °F 50% 29.73 in 10.0 mi NW 19.6 mph 29.9 mph N/A   Mostly Cloudy
1:15 PM 48.2 °F - 32.0 °F 54% 29.74 in 10.0 mi NW 19.6 mph 28.8 mph N/A   Mostly Cloudy
1:35 PM 50.0 °F - 32.0 °F 50% 29.73 in 10.0 mi NW 21.9 mph 29.9 mph N/A   Mostly Cloudy
1:55 PM 50.0 °F - 32.0 °F 50% 29.73 in 10.0 mi NW 23.0 mph 31.1 mph N/A   Mostly Cloudy
2:15 PM 48.2 °F - 32.0 °F 54% 29.73 in 10.0 mi NW 20.7 mph 32.2 mph N/A   Mostly Cloudy
2:35 PM 48.2 °F - 30.2 °F 50% 29.73 in 10.0 mi WNW 21.9 mph 29.9 mph N/A   Overcast
2:55 PM 48.2 °F - 30.2 °F 50% 29.73 in 10.0 mi NW 23.0 mph 33.4 mph N/A   Overcast
3:15 PM 48.2 °F - 32.0 °F 54% 29.73 in 10.0 mi WNW 19.6 mph 28.8 mph N/A   Overcast
3:35 PM 50.0 °F - 32.0 °F 50% 29.73 in 10.0 mi NW 15.0 mph 26.5 mph N/A   Mostly Cloudy
3:55 PM 48.2 °F - 32.0 °F 54% 29.73 in 10.0 mi WNW 15.0 mph 28.8 mph N/A   Mostly Cloudy
4:15 PM 48.2 °F - 32.0 °F 54% 29.73 in 10.0 mi NW 19.6 mph 29.9 mph N/A   Mostly Cloudy
4:35 PM 48.2 °F - 32.0 °F 54% 29.74 in 10.0 mi NW 18.4 mph 29.9 mph N/A   Mostly Cloudy
4:55 PM 48.2 °F - 32.0 °F 54% 29.74 in 10.0 mi NW 19.6 mph 28.8 mph N/A   Overcast
5:15 PM 48.2 °F - 30.2 °F 50% 29.74 in 10.0 mi NW 17.3 mph 27.6 mph N/A   Overcast
5:35 PM 48.2 °F - 30.2 °F 50% 29.74 in 10.0 mi NW 18.4 mph 26.5 mph N/A   Overcast
5:55 PM 46.4 °F 38.7 °F 32.0 °F 57% 29.75 in 10.0 mi NW 20.7 mph 27.6 mph N/A   Mostly Cloudy
6:15 PM 46.4 °F 39.8 °F 30.2 °F 53% 29.76 in 10.0 mi NW 16.1 mph 27.6 mph N/A   Mostly Cloudy
6:35 PM 46.4 °F 39.0 °F 28.4 °F 50% 29.77 in 10.0 mi WNW 19.6 mph 24.2 mph N/A   Partly Cloudy
6:55 PM 44.6 °F 38.1 °F 26.6 °F 49% 29.77 in 10.0 mi NW 13.8 mph 25.3 mph N/A   Scattered Clouds
7:15 PM 44.6 °F 37.8 °F 26.6 °F 49% 29.78 in 10.0 mi NW 15.0 mph 23.0 mph N/A   Partly Cloudy
7:35 PM 44.6 °F 38.4 °F 26.6 °F 49% 29.79 in 10.0 mi NW 12.7 mph 20.7 mph N/A   Partly Cloudy
7:55 PM 42.8 °F 34.5 °F 24.8 °F 49% 29.79 in 10.0 mi NW 18.4 mph 27.6 mph N/A   Scattered Clouds
8:15 PM 41.0 °F 33.1 °F 26.6 °F 57% 29.80 in 10.0 mi NNW 15.0 mph 24.2 mph N/A   Mostly Cloudy
8:35 PM 39.2 °F 30.2 °F 30.2 °F 70% 29.81 in 10.0 mi NNW 17.3 mph 23.0 mph N/A Rain Light Rain
8:55 PM 41.0 °F 33.1 °F 28.4 °F 61% 29.81 in 10.0 mi NW 15.0 mph 21.9 mph N/A   Overcast
9:15 PM 41.0 °F 32.5 °F 26.6 °F 57% 29.82 in 10.0 mi NW 17.3 mph 27.6 mph N/A   Overcast
9:35 PM 41.0 °F 31.4 °F 26.6 °F 57% 29.82 in 10.0 mi NW 21.9 mph 27.6 mph N/A   Overcast
9:55 PM 39.2 °F 29.6 °F 26.6 °F 61% 29.83 in 10.0 mi NW 19.6 mph 27.6 mph N/A   Overcast
10:15 PM 39.2 °F 31.6 °F 26.6 °F 61% 29.84 in 10.0 mi NW 12.7 mph 25.3 mph N/A   Overcast
10:55 PM 37.4 °F 29.3 °F 24.8 °F 60% 29.84 in 10.0 mi WNW 12.7 mph 18.4 mph N/A   Clear
11:15 PM 37.4 °F 29.3 °F 24.8 °F 60% 29.85 in 10.0 mi WNW 12.7 mph 19.6 mph N/A   Clear
11:35 PM 35.6 °F 27.5 °F 24.8 °F 65% 29.85 in 10.0 mi WNW 11.5 mph 18.4 mph N/A   Clear
11:55 PM 35.6 °F 28.0 °F 24.8 °F 65% 29.85 in 10.0 mi WNW 10.4 mph - N/A   Clear